Location: Brahman Valley
(40.6513°N, 111.8855°W)
Time: 22:07:33
(UTC+00:00)

Vanguard 2 - Pass Details

Date: 19 May 2021
Orbit: 552 x 2937 km, 32.9° (Epoch: 14 June)

Event Time Altitude Azimuth Distance (km) Brightness Sun altitude
Rises 15:50:42 0° 273° (W) 4,924 11.2 40.4°
Reaches altitude 10° 15:53:42 10° 267° (W) 4,223 10.9 40.9°
Maximum altitude 16:05:03 45° 200° (SSW) 3,108 11.0 43.1°
Drops below altitude 10° 16:20:47 10° 136° (SE) 5,732 12.7 46.0°
Sets 16:25:42 0° 131° (SE) 6,782 13.0 46.9°
